Regional Weather Roundup
Issued by NWS Upton, NY

Current Version | Previous Version | Graphics & Text | Print | Product List | Glossary Off
Versions: 1 2 3 4 5 6 7 8 9 10 11 12 13 14 15 16 17 18 19 20 21 22 23 24 25 26 27 28 29 30 31 32 33 34 35 36 37 38 39 40 41 42 43 44 45 46 47 48 49 50

000
ASUS41 KOKX 020107
RWROKX

REGIONAL WEATHER ROUNDUP
NATIONAL WEATHER SERVICE NEW YORK NY
900 PM EDT WED APR 01 2015

NOTE: "FAIR" INDICATES FEW OR NO CLOUDS BELOW 12,000 FEET WITH NO
SIGNIFICANT WEATHER AND/OR OBSTRUCTIONS TO VISIBILITY.

NYZ071-072-176-178-NJZ106-104-020200-
NEW YORK CITY METRO AREA


CITY           SKY/WX    TMP DP  RH WIND       PRES   REMARKS
CENTRAL PARK   CLEAR     47  13  25 CALM      30.21R
LAGUARDIA APRT CLEAR     46  21  37 NW9       30.18R
KENNEDY INTL   CLEAR     48  12  23 NW13G20   30.20R
NEWARK/LIBERTY CLEAR     47  15  27 NW8       30.19R
BRNX BOT. GARD   N/A    N/A N/A N/A W5        30.19R
TETERBORO      CLEAR     46  13  26 CALM      30.18R
$$

NYZ177-179-078>081-020200-
LONG ISLAND NEW YORK

CITY           SKY/WX    TMP DP  RH WIND       PRES   REMARKS
FARMINGDALE    CLEAR     45  16  31 W5        30.18R
ISLIP          CLEAR     42  18  37 W6        30.16R
SHIRLEY        CLEAR     38  20  48 NW3       30.18R
WESTHAMPTON    CLEAR     28  16  60 CALM      30.18R
MONTAUK POINT    N/A     39  23  52 SW3       30.17R
$$

NYZ052-065-067-020200-
HUDSON VALLEY

CITY           SKY/WX    TMP DP  RH WIND       PRES   REMARKS
WHITE PLAINS   CLEAR     41  14  33 NW8       30.16R
NEWBURGH       CLEAR     37  14  38 W8        30.18R WCI  31
MONTGOMERY     CLEAR     37  13  37 NW6       30.17R WCI  32
POUGHKEEPSIE   CLEAR     37  12  35 CALM      30.18R
ALBANY         CLEAR     36   5  27 W15G23    30.18R WCI  27
$$

NJZ001-105-106-008-010-013-015-019>022-104-020200-
NEW JERSEY

CITY           SKY/WX    TMP DP  RH WIND       PRES   REMARKS
NEWARK/LIBERTY CLEAR     47  15  27 NW8       30.19R
TETERBORO      CLEAR     46  13  26 CALM      30.18R
CALDWELL       CLEAR     42  17  36 W3        30.19R
MORRISTOWN     NOT AVBL
SOMERVILLE     CLEAR     40  20  44 NW5       30.18R
SUSSEX         CLEAR     35  20  54 CALM      30.18R
ANDOVER          N/A     34  24  67 CALM      30.18R
TRENTON        CLEAR     46  24  42 NW3       30.19R
MILLVILLE      CLEAR     38  27  64 CALM      30.21R
ATLANTIC CITY  CLEAR     42  32  67 CALM      30.21R
WRIGHTSTOWN    CLEAR     43  24  47 W5        30.17R
TOMS RIVER     CLEAR     39  27  60 CALM      30.21R
BELMAR         CLEAR     41  25  52 S6        30.19R
$$

PAZ047>061-062-071-020200-
EASTERN PENNSYLVANIA

CITY           SKY/WX    TMP DP  RH WIND       PRES   REMARKS
PHILADELPHIA   CLEAR     49  20  31 N7        30.22R
ALLENTOWN      CLEAR     43  22  43 CALM      30.18R
SCRANTON       CLEAR     40  18  41 E5        30.15R
$$

CTZ002-004>006-009-010-012-RIZ004-006-007-MAZ004-011-015-020200-
SOUTHERN NEW ENGLAND
 IN CT

CITY           SKY/WX    TMP DP  RH WIND       PRES   REMARKS
BRADLEY INTL   CLEAR     41   6  23 NW5       30.16R
HARTFORD       CLEAR     42   4  20 VRB6      30.17R
DANBURY        CLEAR     35  14  42 CALM      30.17R
WTRBRY/OXFORD  CLEAR     37   9  30 N5        30.16R WCI  34
BRIDGEPORT     CLEAR     45   7  21 NW7       30.17R
MERIDEN        CLEAR     33  18  53 CALM      30.17R
NEW HAVEN      CLEAR     44   7  21 NW5       30.17R
CHESTER        FAIR      43   1  17 NW7       30.15R
GROTON         CLEAR     37  12  35 CALM      30.16R
WILLIMANTIC    CLEAR     37  12  35 CALM      30.16R

 IN RI

CITY           SKY/WX    TMP DP  RH WIND       PRES   REMARKS
PROVIDENCE     CLEAR     40   4  22 NW3       30.15R
BLOCK ISLAND   CLEAR     41  12  30 N5        30.15R
WESTERLY       CLEAR     36  12  37 CALM      30.16R

 IN MA

CITY           SKY/WX    TMP DP  RH WIND       PRES   REMARKS
BOSTON         CLEAR     41   2  19 N3        30.15R
WORCESTER      CLEAR     34   3  27 NW8       30.11R WCI  27
WESTFIELD      CLEAR     39   6  25 NW5       30.15R
PROVINCETOWN   CLEAR     34  27  75 W5        30.15R WCI  30
NANTUCKET      CLEAR     34  25  69 S6        30.15R WCI  29
$$

ANZ330-335-338-340-345-350-353-355-020200-
COASTAL MARINE OBSERVATIONS


STATION/POSITION TIME  SKY/WX   TEMP    WIND        PRES    VSBY  WAVE
                                AIR SEA DIR/SP/G                  HT/PER
                 (UTC)          (F)     (DEG/KT/KT) (MB)    (MI)  (FT/S)
NY HARB ENTRANCE 0050            41 39  210/ 10/ 12 1022.0          1/ 7
4S FIRE IS       0003               38                N/A           2/ 8
20S FIRE ISLAND  NOT AVBL
23SW MTP         0050                                 N/A           2/ 8
HUDSON CANYON    NOT AVBL
EXECUTION ROCKS  NOT AVBL
WESTERN LI SOUND NOT AVBL
CENTRAL LI SOUND NOT AVBL
EASTERN LI SOUND NOT AVBL
ROBBINS REEF     0000            49     330/ 11/ 14 1020.3
$$


>>>>>>>>>>>>>>>>>>>>>>>>>>>> KEY <<<<<<<<<<<<<<<<<<<<<<<<<<<
>                                                          <
>     SKY/WX - SKY CONDITION/PRESENT WEATHER               <
>     TMP    - TEMPERATURE IN FAHRENHEIT                   <
>     DP     - DEWPOINT IN FAHRENHEIT                      <
>     RH     - RELATIVE HUMIDITY IN PERCENT                <
>     WIND   - DIRECTION AND SPEED IN MPH                  <
>     PRES   - MEAN SEA LEVEL PRESSURE IN INCHES OF HG     <
>     WCI    - WIND CHILL INDEX                            <
>     VSB    - VISIBILITY IN MILES                         <
>     HX     - HEAT INDEX                                  <
>     TC     - TEMPERATURE IN CELSIUS                      <
>     VRB    - VARIABLE WIND DIRECTION                     <
>                                                          <
>>>>>>>>>>>>>>>>>>>>>>>>>>>> KEY <<<<<<<<<<<<<<<<<<<<<<<<<<<





USA.gov is the U.S. government's official web portal to all federal, state and local government web resources and services.